metlocid,date_time,avg_airt3m,std_airt3m,min_airt3m,max_airt3m,n_airt3m,avg_airtdel3m1,std_airtdel3m1,min_airtdel3m1,max_airtdel3m1,n_airtdel3m1,n_comments
EXEM,11/21/97,1.854705875,0.649431597,0.75,3.56,51,,,,,0,0
EXEM,11/22/97,1.259583338,0.928225151,-0.58,3.93,96,,,,,0,0
EXEM,11/23/97,-1.495729169,0.358663433,-2.24,-0.56,96,,,,,0,0
EXEM,11/24/97,-1.89125,0.834209676,-3.26,-0.73,96,,,,,0,0
EXEM,11/25/97,-1.718854164,0.892807361,-3.44,-0.45,96,,,,,0,0
EXEM,11/26/97,-1.424507049,0.536016501,-2.39,-0.29,71,,,,,0,0
EXEM,11/27/97,-2.713645825,0.448135603,-3.63,-1.63,96,,,,,0,0
EXEM,11/28/97,-3.904583342,0.907093607,-7.08,-3.01,96,,,,,0,0
EXEM,11/29/97,-8.828437532,0.7176252,-9.98,-7.22,96,,,,,0,0
EXEM,11/30/97,-6.734791661,1.731469734,-9.01,-4.29,96,,,,,0,0
EXEM,12/1/97,-3.699583334,1.203842894,-5.45,-1.31,96,,,,,0,0
EXEM,12/2/97,-3.809791667,0.542914118,-5.29,-2.81,96,,,,,0,0
EXEM,12/3/97,-4.886145853,0.76553163,-6.36,-3.64,96,,,,,0,0
EXEM,12/4/97,-5.749895828,0.961147877,-7.27,-3.61,96,,,,,0,0
EXEM,12/5/97,-6.351458351,0.382952451,-7.1,-5.41,96,,,,,0,0
EXEM,12/6/97,-5.082812483,1.156206764,-7.21,-3.13,96,,,,,0,0
EXEM,12/7/97,-7.767708351,0.395377192,-8.57,-6.73,96,,,,,0,0
EXEM,12/8/97,-7.744270841,0.407858982,-8.57,-7.05,96,,,,,0,0
EXEM,12/9/97,-7.765416682,0.563474048,-8.94,-6.27,96,,,,,0,0
EXEM,12/10/97,-7.537395845,1.432410694,-9.49,-5.42,96,,,,,0,0
EXEM,12/11/97,-9.595937505,0.614535484,-10.31,-7.82,96,,,,,0,0
EXEM,12/12/97,-7.667604173,1.803532648,-10.66,-5.33,96,,,,,0,0
EXEM,12/13/97,-3.370312492,1.820563511,-5.66,-0.42,96,,,,,0,0
EXEM,12/14/97,-2.690729167,0.871973262,-3.76,-1.16,96,,,,,0,0
EXEM,12/15/97,-3.436250001,0.847547849,-5,-1.97,96,,,,,0,0
EXEM,12/16/97,-3.673020837,0.459766801,-4.93,-2.62,96,,,,,0,0
EXEM,12/17/97,-3.527604184,0.499110278,-4.54,-1.68,96,,,,,0,0
EXEM,12/18/97,-5.571562501,0.810829758,-7.19,-3.84,96,,,,,0,0
EXEM,12/19/97,-5.613125014,1.323903582,-7.71,-3.76,96,,,,,0,0
EXEM,12/20/97,-3.839895839,0.561440811,-5.31,-2.84,96,,,,,0,0
EXEM,12/21/97,-4.820312512,0.93885647,-6.59,-3.07,96,,,,,0,0
EXEM,12/22/97,-2.531249989,1.669771635,-5.83,-0.27,96,,,,,0,0
EXEM,12/23/97,0.211145831,1.439462522,-2.52,3.57,96,,,,,0,0
EXEM,12/24/97,0.469270832,1.584520009,-2.37,2.99,96,,,,,0,0
EXEM,12/25/97,0.386145832,0.571139894,-1.34,1.27,96,,,,,0,0
EXEM,12/26/97,0.379791669,1.342855538,-1.93,2.07,96,,,,,0,0
EXEM,12/27/97,1.224791658,0.992606322,-0.89,2.7,96,,,,,0,0
EXEM,12/28/97,0.733541668,0.572690749,-0.48,1.8,96,,,,,0,0
EXEM,12/29/97,0.238333336,0.611362014,-0.84,1.73,96,,,,,0,0
EXEM,12/30/97,-0.258125,1.039422218,-1.46,1.66,96,,,,,0,0
EXEM,12/31/97,-1.67791667,0.205881504,-2.05,-0.94,96,,,,,0,0
EXEM,1/1/98,-1.5415625,0.562251735,-2.4,-0.43,96,,,,,0,0
EXEM,1/2/98,0.469166666,1.196934388,-0.93,3.27,96,,,,,0,0
EXEM,1/3/98,-1.588124995,0.502784479,-2.62,-0.53,96,,,,,0,0
EXEM,1/4/98,-1.092604154,1.227523161,-2.93,1.57,96,,,,,0,0
EXEM,1/5/98,-0.435416669,0.872895871,-2.51,0.82,96,,,,,0,0
EXEM,1/6/98,-0.372500003,0.982427713,-2.21,1.51,96,,,,,0,0
EXEM,1/7/98,-1.212708333,0.633327856,-2.64,0.01,96,,,,,0,0
EXEM,1/8/98,-3.127291645,1.012931608,-5.1,-1.47,96,,,,,0,0
EXEM,1/9/98,-4.972604168,0.545444775,-5.87,-3.68,96,,,,,0,0
EXEM,1/10/98,-5.287604193,0.543198624,-6.36,-4.24,96,,,,,0,0
EXEM,1/11/98,-4.813750003,1.19244839,-6.47,-1.59,96,,,,,0,0
EXEM,1/12/98,-4.47041666,2.070770969,-7.85,-1.61,96,,,,,0,0
EXEM,1/13/98,-1.727291672,1.062998232,-3.54,-0.04,96,-1.362105266,0.461866311,-2,-0.21,57,0
EXEM,1/14/98,-4.104791666,1.108615045,-6.06,-1.57,96,-0.950624996,0.606693906,-2.41,-0.12,96,0
EXEM,1/15/98,-6.002083319,1.198697446,-8.23,-3.82,96,-1.046458335,0.647038565,-2.03,-0.11,96,0
EXEM,1/16/98,-2.440833324,1.656633018,-5.25,-0.01,96,-0.975729173,0.432327236,-1.87,-0.19,96,0
EXEM,1/17/98,-2.95194446,0.487839844,-3.98,-2.15,72,-0.859444445,0.363057784,-1.37,-0.01,72,0
EXEM,1/18/98,-3.931098922,0.72394514,-5.05,-2.66,91,-1.058461533,0.578455647,-2.09,0.01,91,0
EXEM,1/19/98,-2.629583331,1.311246034,-5.05,-0.74,96,-1.064583335,0.528564926,-1.92,0.07,96,0
EXEM,1/20/98,-2.397604166,0.831511938,-3.52,-0.74,96,-0.725625001,0.590394717,-1.91,0.16,96,0
EXEM,1/21/98,-3.523020823,0.988497116,-5.36,-1.67,96,-1.062812495,0.631513973,-2.16,-0.06,96,0
EXEM,1/22/98,-3.458229188,1.18698114,-6.06,-1.78,96,-0.766458331,0.522818229,-1.87,0.14,96,0
EXEM,1/23/98,-3.396979161,1.945301559,-6.85,-0.93,96,-1.136145829,0.691360776,-2.07,0.51,96,0
EXEM,1/24/98,-3.8625,1.388726804,-6.69,-1.06,96,-0.81552083,0.474414584,-1.59,0.39,96,0
EXEM,1/25/98,-8.40791669,0.643413513,-9.33,-6.46,96,-0.423020833,0.240832415,-1.08,0.03,96,0
EXEM,1/26/98,-8.075520848,0.955246898,-9.38,-5.99,96,-0.459999999,0.319993419,-1.28,0.29,96,0
EXEM,1/27/98,-6.982395818,1.1032991,-9.45,-5.59,96,-1.003020826,0.699022047,-2.07,0.22,96,0
EXEM,1/28/98,-5.559895836,0.905585558,-8.16,-3.8,96,-0.758020834,0.709329736,-2.07,0.15,96,0
EXEM,1/29/98,-6.955624998,1.711948576,-9.48,-4.09,96,-0.320937498,0.221830081,-0.77,0.04,96,0
EXEM,1/30/98,-7.60999998,2.214905943,-10.73,-1.44,96,0.102187501,1.158869869,-3.08,3.34,96,0
EXEM,1/31/98,-8.43083329,1.158466921,-10.84,-6.33,96,-0.865312504,0.88267531,-2.48,0.32,96,0
EXEM,2/1/98,-9.491354118,0.8807671,-11.44,-8.01,96,-0.552708333,0.427805857,-1.52,0.11,96,0
EXEM,2/2/98,-9.016041641,0.893719002,-10.41,-7.43,96,-0.998437495,0.856750683,-2.42,0.06,96,0
EXEM,2/3/98,-7.538229143,1.778072243,-10.96,-4.14,96,-0.700416668,0.651063775,-1.96,0.14,96,0
EXEM,2/4/98,-6.488645862,1.706071311,-9.81,-4.22,96,-0.812708333,0.829830012,-2.23,0.76,96,0
EXEM,2/5/98,-5.598541667,1.516000244,-8.63,-2.55,96,-0.390729166,0.337077985,-1.07,0.04,96,0
EXEM,2/6/98,-6.122499997,1.682535696,-9.03,-3.37,96,-0.6546875,0.654389154,-2.15,0.1,96,0
EXEM,2/7/98,-6.623020813,1.431082883,-9.84,-4.54,96,-0.689583337,0.609760814,-2.03,0.11,96,0
EXEM,2/8/98,-5.391770843,1.67050449,-8.03,-1.57,96,-0.584479165,0.584202325,-1.6,0.29,96,0
EXEM,2/9/98,-5.016041679,0.607653744,-5.99,-3.46,96,-0.333229167,0.333487142,-1.19,0.11,96,0
EXEM,2/10/98,-0.665625002,1.675799776,-5.36,1.28,96,-0.020833334,0.127738768,-0.22,0.38,96,0
EXEM,2/11/98,-3.880833338,1.240750752,-6.08,-1.33,96,-0.184374999,0.295260144,-0.97,0.55,96,0
EXEM,2/12/98,-3.829687499,1.38785366,-7.83,1.43,96,-0.083125002,0.936433682,-3.19,2.16,96,0
EXEM,2/13/98,-5.027083364,2.161205782,-8.52,0.61,96,-0.387291665,1.356036391,-4.1,1.91,96,0
EXEM,2/14/98,-5.779166684,1.321456667,-8.23,-2.35,96,-0.28125,0.60709186,-1.99,0.73,96,0
EXEM,2/15/98,-5.89177083,0.905932484,-7.19,-3.1,96,-0.1359375,0.20542935,-1.2,0.22,96,0
EXEM,2/16/98,-6.947916677,0.672293683,-8.11,-4.81,96,-0.356458334,0.60686421,-2.17,0.64,96,0
EXEM,2/17/98,-7.619583353,1.287834538,-10.06,-2.85,96,0.830520832,1.818031536,-1.93,5.91,96,0
EXEM,2/18/98,-7.863854182,1.797457493,-12.85,-3.74,96,0.345000001,0.507833377,-0.94,1.75,96,0
EXEM,2/19/98,-11.29531248,2.96203876,-16.42,-3.38,96,1.983958339,1.302179932,-0.64,5.68,96,0
EXEM,2/20/98,-14.60374996,2.976974433,-21.11,-8.13,96,1.184687496,0.609596854,-0.12,2.88,96,0
EXEM,2/21/98,-9.618958356,2.997561291,-15.97,-3.02,96,0.297604165,0.714273635,-1.24,2.6,96,0
EXEM,2/22/98,-13.36666664,3.424047019,-18.89,-6.93,96,0.846874997,0.900096262,-0.88,2.78,96,0
EXEM,2/23/98,-14.10781245,2.782790365,-19.46,-7.23,96,0.270833336,1.087472845,-2.31,2.44,96,0
EXEM,2/24/98,-14.63083335,0.686349086,-15.78,-13.14,96,-0.173229166,0.288142855,-0.92,0.33,96,0
EXEM,2/25/98,-14.85333336,3.303265278,-21.22,-6.43,96,0.385937501,0.961774216,-1.93,4.23,96,0
EXEM,2/26/98,-8.574479158,2.177874338,-15.55,-5.85,96,0.213020833,0.266664071,-0.2,1.21,96,0
EXEM,2/27/98,-8.811770824,1.260415124,-10.88,-3.99,96,-0.042916668,0.758512276,-1.88,2.11,96,0
EXEM,2/28/98,-12.92593743,1.475261704,-14.77,-10.61,96,-0.089895833,0.208369584,-0.7,0.59,96,0
EXEM,3/1/98,-14.43874999,1.273400905,-16.66,-10.16,96,0.420624999,0.783031651,-2.16,2.45,96,0
EXEM,3/2/98,-16.36499996,1.121347875,-19.69,-14.75,96,0.029687499,0.668820574,-1.41,2.17,96,0
EXEM,3/3/98,-19.62624994,2.430042257,-23.4,-12.69,96,1.363645829,1.226162275,-2.22,3.62,96,0
EXEM,3/4/98,-19.60479163,4.011201671,-25.43,-9.41,96,1.64552083,1.188808214,-1.41,6.45,96,0
EXEM,3/5/98,-21.30029846,1.943530028,-24.32,-17.85,67,1.10044776,0.782405829,-0.4,2.62,67,0
EXEM,3/6/98,-23.98531254,2.36671528,-28.09,-19.14,96,0.830625,0.976041211,-1.68,3.21,96,0
EXEM,3/7/98,-24.91968749,2.244174386,-28.92,-19.23,96,0.930729172,0.95641353,-1.67,3.21,96,0
EXEM,3/8/98,-21.40083338,3.120735631,-27.11,-15.37,96,0.841562501,1.04411164,-2.2,2.96,96,0
EXEM,3/9/98,-22.84000007,3.59909465,-29.63,-14.8,96,1.118645826,0.94623644,-0.2,4.27,96,0
EXEM,3/10/98,-16.50541664,2.876177988,-20.19,-11.05,96,0.221979166,0.324224156,-0.29,1.52,96,0
EXEM,3/11/98,-10.84843751,1.738760237,-14.89,-7.17,96,0.249479167,0.199965101,-0.2,0.82,96,0
EXEM,3/12/98,-17.28208333,2.102967296,-21.23,-12.99,96,1.002083335,0.644322444,-0.41,2.66,96,0
EXEM,3/13/98,-16.33572919,3.264305463,-21.73,-8.55,96,1.385833328,0.96301136,-1.08,3.36,96,0
EXEM,3/14/98,-18.05333342,1.746267983,-21.32,-12.78,96,0.928229171,0.79811356,-1.51,2.38,96,0
EXEM,3/15/98,-19.79145827,2.936418495,-25.2,-14.17,96,0.913541667,0.71843687,-0.35,2.58,96,0
EXEM,3/16/98,-16.69999994,2.437497765,-22.41,-11.31,96,0.538645834,0.684043119,-1.22,2.77,96,0
EXEM,3/17/98,-17.87010416,2.263843269,-21.86,-13.46,96,1.096249997,1.027435488,-0.96,3.32,96,0
EXEM,3/18/98,-18.18270829,2.358863014,-22.62,-14,96,0.98885416,0.920212639,-1.45,3,96,0
EXEM,3/19/98,-16.05187505,2.083375487,-21.07,-12.72,96,0.609687498,0.868592879,-1.49,2.69,96,0
EXEM,3/20/98,-17.74604166,1.808200362,-21.36,-14.36,96,0.857187499,0.583435746,-0.51,2.51,96,0
EXEM,3/21/98,-21.2483333,1.876707994,-24.92,-18.36,96,0.4440625,0.62944517,-0.19,2.48,96,0
EXEM,3/22/98,-20.84979171,2.228666737,-24.5,-14.54,96,1.159687503,0.792749322,-0.06,3.35,96,0
EXEM,3/23/98,-24.02979163,1.860825036,-28.41,-20.89,96,0.2809375,0.435578448,-0.26,1.79,96,0
EXEM,3/24/98,-27.66020838,1.902177723,-32.58,-23.26,96,1.056354166,0.528798282,0.08,2.3,96,0
EXEM,3/25/98,-31.64281229,2.050463753,-34.74,-25.99,96,1.413020835,0.807613931,0.12,4.63,96,0
EXEM,3/26/98,-24.74781245,2.674936004,-31,-17.88,96,0.776562499,0.846750854,-0.8,3.02,96,0
EXEM,3/27/98,-21.41072911,0.891193446,-23.08,-19.58,96,0.083229167,0.156268965,-0.37,0.54,96,0
EXEM,3/28/98,-19.79843756,1.370938514,-23.52,-17.55,96,0.397916666,0.572870735,-0.3,2.21,96,0
EXEM,3/29/98,-23.91770826,1.606143748,-26.89,-20.09,96,0.701145834,0.492614664,0.06,2.9,96,0
EXEM,3/30/98,-21.54781252,2.272040266,-25.6,-17.66,96,1.34166667,1.239125047,-0.4,4.12,96,0
EXEM,3/31/98,-24.34593753,1.25664265,-27.93,-22.1,96,0.415625,0.363812596,-0.02,1.69,96,0
EXEM,4/1/98,-23.88083329,1.682571135,-27.12,-19.2,96,0.583541666,0.707779303,-0.1,2.99,96,0
EXEM,4/2/98,-25.72499996,1.661017529,-30.45,-23.15,96,0.628645834,0.574332782,-0.05,2.6,96,0
EXEM,4/3/98,-32.50927071,1.400678207,-35.29,-28.93,96,1.378541667,0.613047573,0.39,2.69,96,0
EXEM,4/4/98,-34.66625005,1.474190736,-37.74,-30.08,96,1.12885417,0.558595746,0.37,2.7,96,0
EXEM,4/5/98,-33.33270826,1.834079929,-37.33,-28.79,96,0.979375002,0.563574699,-0.03,2.83,96,0
EXEM,4/6/98,-29.77749995,1.403853367,-33.42,-27,96,1.017604164,0.574085535,0.16,2.92,96,0
EXEM,4/7/98,-31.05229165,1.600359425,-35.49,-27.26,96,0.919375001,0.365118044,0.3,2.27,96,0
EXEM,4/8/98,-31.37395829,2.132945731,-36.43,-27.22,96,1.08145833,0.611570852,0.06,2.67,96,0
EXEM,4/9/98,-31.50979161,2.087246921,-36.78,-27.43,96,0.447395833,0.389840036,-0.03,1.98,96,0
EXEM,4/10/98,-32.2442708,1.856298986,-35.49,-28.55,96,1.203645835,0.582098062,0.22,2.68,96,0
EXEM,4/11/98,-27.1314583,1.270157045,-30.09,-24.87,96,0.526875,0.30750717,0.18,1.71,96,0
EXEM,4/12/98,-28.02979171,3.63671795,-33.86,-22.83,96,0.729583335,0.65630371,0.13,2.92,96,0
EXEM,4/13/98,-36.02458338,1.438445556,-38.83,-32.46,96,0.881250002,0.439363775,0.04,2.27,96,0
EXEM,4/14/98,-37.11666662,1.847534249,-40.54,-31.82,96,0.77,0.478590029,-0.09,2.31,96,0
EXEM,4/15/98,-39.34885414,1.34514165,-41.54,-35.96,96,0.833229164,0.503519177,-0.1,2.33,96,0
EXEM,4/16/98,-41.58312511,1.207199891,-44.86,-38.89,96,0.740937499,0.36742082,0.08,2.05,96,0
EXEM,4/17/98,-41.05385411,1.704875758,-44.56,-37.64,96,0.811458338,0.429565219,0.07,2.15,96,0
EXEM,4/18/98,-42.37052071,1.463223896,-44.99,-38.39,96,0.6815625,0.329009129,-0.01,1.65,96,0
EXEM,4/19/98,-42.31447923,1.569296708,-46.55,-38.94,96,0.765729165,0.351363488,0.12,2.12,96,0
EXEM,4/20/98,-43.35989602,2.409392355,-47.46,-37.65,96,0.770833332,0.317508942,0.2,2,96,0
EXEM,4/21/98,-37.07373161,2.583609661,-41.84,-32.14,67,0.834029851,0.303624864,-0.06,1.51,67,0
EXEM,4/22/98,-33.95166649,2.291131502,-40.05,-29.5,96,0.807604167,0.471139144,0.14,1.93,96,0
EXEM,4/23/98,-31.65583334,0.931750666,-33.6,-28.97,96,0.481666666,0.350709556,0.11,1.64,96,0
EXEM,4/24/98,-30.74322915,1.650843088,-33.87,-26.77,96,0.773020827,0.526985698,0.09,2.62,96,0
EXEM,4/25/98,-28.23625004,4.494856329,-36.64,-21.44,96,0.562708332,0.493073029,0.16,2.3,96,0
EXEM,4/26/98,-18.78604175,3.775833854,-26.51,-11.87,96,0.310625,0.218264991,-0.06,1.2,96,0
EXEM,4/27/98,-13.58125004,3.580508503,-18.85,-7.91,96,0.493958331,0.18829137,0.18,1.36,96,0
EXEM,4/28/98,-19.95333334,2.916010081,-24.84,-14.27,96,1.168854169,0.759546786,0.23,3.4,96,0
EXEM,4/29/98,-23.20510419,3.28995147,-30.01,-19.06,96,0.848333335,0.421894646,0.18,2.18,96,0
EXEM,4/30/98,-27.17229156,1.472022206,-30.5,-23.22,96,0.621770833,0.399705141,-0.04,2.25,96,0
EXEM,5/1/98,-27.74729164,1.10210655,-30.43,-24.69,96,0.290208333,0.30495894,-0.04,1.42,96,0
EXEM,5/2/98,-30.84874992,1.755096104,-33.79,-28.19,96,0.303333334,0.317426054,-0.05,1.39,96,0
EXEM,5/3/98,-32.81812501,1.966864574,-35.94,-30.01,96,0.774166665,0.526363222,0.1,2.16,96,0
EXEM,5/4/98,-30.45166659,3.637259286,-34.25,-23.83,96,0.041458333,0.091949403,-0.07,0.53,96,0
EXEM,5/5/98,-30.31114584,3.456506281,-34.42,-23.56,96,0.964270833,0.777363621,0.04,3.23,96,0
EXEM,5/6/98,-36.21958335,1.060420879,-39.46,-32.8,96,0.821875003,0.354170088,0.14,1.71,96,0
EXEM,5/7/98,-25.83093751,3.253592637,-32.89,-12.28,96,0.609583336,0.437661053,-0.09,2.45,96,0
EXEM,5/8/98,-23.15104157,1.45778092,-27.84,-20.17,96,0.520416666,0.474004032,0.03,2.58,96,0
EXEM,5/9/98,-18.71947919,3.250306664,-23.9,-13.16,96,0.455520834,0.346834921,-0.02,1.54,96,0
EXEM,5/10/98,-22.10270842,1.910086495,-25.9,-16.69,96,0.902499996,0.443092003,0.1,2.49,96,0
EXEM,5/11/98,-22.4127083,1.365007396,-25.16,-18.88,96,0.586979168,0.47795424,0.02,2.13,96,0
EXEM,5/12/98,-26.67447923,1.551662527,-30.11,-22.91,96,1.429895836,0.774068534,0.13,2.79,96,0
EXEM,5/13/98,-31.4782292,3.127193729,-37.01,-23.91,96,0.871145831,0.599822552,0.04,3.13,96,0
EXEM,5/14/98,-35.52020828,1.790775142,-39.37,-31.8,96,0.808854167,0.513751674,0.02,2.43,96,0
EXEM,5/15/98,-38.88687503,1.762964793,-43.01,-34.56,96,0.935104165,0.500647995,0.22,2.46,96,0
EXEM,5/16/98,-28.79729174,7.189091201,-41.65,-20.27,96,0.762708332,0.374962396,0.3,2,96,0
EXEM,5/17/98,-17.28624993,2.221527308,-20.58,-12.73,96,0.3378125,0.168336775,0.15,1.2,96,0
EXEM,5/18/98,-18.30937492,1.945694198,-20.63,-12.19,96,0.390208335,0.267282541,0.09,1.43,96,0
EXEM,5/19/98,-23.12364584,1.673881828,-27.15,-19.37,96,0.700833332,0.513185439,0.02,2.56,96,0
EXEM,5/20/98,-29.91229157,3.28384127,-35.6,-23.03,96,0.884791666,0.460685938,-0.21,2.48,96,0
EXEM,5/21/98,-24.87812507,4.315054372,-34.94,-18.23,96,0.716666669,0.407091524,0.18,2.47,96,0
EXEM,5/22/98,-22.19239588,4.899828506,-30.78,-12.72,96,0.603437501,0.508371661,-0.02,2.02,96,0
EXEM,5/23/98,-30.0252082,2.68506851,-34.21,-25.44,96,0.751770836,0.516178255,0.02,2.58,96,0
EXEM,5/24/98,-28.02395829,2.967774775,-33.36,-24.16,96,0.870937499,0.511100109,0.02,2.43,96,0
EXEM,5/25/98,-34.51208347,1.317983152,-37.51,-31.52,96,1.288854165,0.546577614,0.42,2.78,96,0
EXEM,5/26/98,-32.98031243,1.89229423,-36.71,-28.33,96,1.01354166,0.666069343,0.02,3.03,96,0
EXEM,5/27/98,-31.20510417,1.451313702,-34.42,-27.27,96,0.603229167,0.362408596,0.1,1.72,96,0
EXEM,5/28/98,-24.64822921,4.884026851,-31.44,-14.71,96,0.303229167,0.150182307,-0.02,0.69,96,0
EXEM,5/29/98,-8.728125021,3.550938591,-15.53,-3.98,96,0.398333333,0.113171195,0.09,0.67,96,0
EXEM,5/30/98,-15.8008333,4.422852781,-22.37,-6.96,96,0.659895834,0.698251195,0.01,2.77,96,0
EXEM,5/31/98,-23.80843759,2.542529791,-28.68,-18.68,96,1.092916665,0.517821172,0.38,2.73,96,0
EXEM,6/1/98,-28.30791672,1.688942988,-31.04,-24.3,96,0.678437499,0.398426716,0.04,1.85,96,0
EXEM,6/2/98,-27.98302084,1.852218681,-31.29,-25.09,96,0.252916667,0.269833933,0.01,1.35,96,0
EXEM,6/3/98,-27.69343748,0.856839778,-30.04,-26.23,96,0.310833333,0.152271687,0.06,0.74,96,0
EXEM,6/4/98,-23.78635412,1.975490922,-27.53,-17.35,96,0.616979167,0.515347855,0.03,2.48,96,0
EXEM,6/5/98,-14.64458333,3.765826095,-20.62,-9.58,96,0.531874999,0.257204865,0.24,1.4,96,0
EXEM,6/6/98,-10.40229169,1.244107357,-13.27,-7.86,96,0.393437499,0.198488114,0.2,1.15,96,0
EXEM,6/7/98,-11.76156249,1.929763747,-14.49,-7.68,96,0.444374999,0.26425192,0.07,1.22,96,0
EXEM,6/8/98,-15.51572915,1.77214576,-20.96,-12.66,96,0.708750002,0.5858853,0.04,2.97,96,0
EXEM,6/9/98,-19.59770843,2.729501367,-23.57,-10.56,96,0.574375001,0.474438866,-0.4,1.78,96,0
EXEM,6/10/98,-20.49166665,1.888856884,-23.28,-15.21,96,0.1834375,0.149889982,-0.02,0.71,96,0
EXEM,6/11/98,-19.20489584,1.937519873,-21.87,-14.55,96,0.2203125,0.200916074,-0.02,0.78,96,0
EXEM,6/12/98,-18.61593749,3.50807294,-25.53,-12.34,96,1.059791669,0.684266768,0.04,3.02,96,0
EXEM,6/13/98,-14.00270826,3.807372213,-25.36,-9.73,96,0.388749998,0.387347934,-0.54,2.21,96,0
EXEM,6/14/98,-17.25218751,1.933495439,-21.27,-13.81,96,0.340520833,0.365966261,0.02,1.57,96,0
EXEM,6/15/98,-17.22072918,3.236321872,-22.61,-13.09,96,0.594166666,0.476987622,0.09,1.98,96,0
EXEM,6/16/98,-22.14802082,3.100079972,-25.8,-14.38,96,0.983854164,0.497958711,0.12,2.39,96,0
EXEM,6/17/98,-18.72187492,2.13500406,-23.59,-14.63,96,0.649374999,0.355781761,0.09,2.39,96,0
EXEM,6/18/98,-21.82979163,1.103534132,-24.76,-18.96,96,0.938541667,0.642750633,0.02,2.62,96,0
EXEM,6/19/98,-22.83427091,1.140717818,-25.06,-19.79,96,0.542916667,0.324737682,-0.04,1.77,96,0
EXEM,6/20/98,-25.4983333,1.316366347,-27.99,-22.59,96,0.962812499,0.604538459,0.09,2.88,96,0
EXEM,6/21/98,-20.54947915,1.603298733,-23.21,-18.03,96,0.856874999,0.684765514,0.06,3.07,96,0
EXEM,6/22/98,-22.64624999,3.088488648,-27.57,-17.19,96,0.407708334,0.309377913,0.08,1.6,96,0
EXEM,6/23/98,-13.69114579,1.919086305,-18.76,-9.81,96,0.3634375,0.198588854,-0.35,0.97,96,0
EXEM,6/24/98,-19.82854176,3.74153672,-26.7,-13.1,96,1.104374995,0.417097269,0.12,2.17,96,0
EXEM,6/25/98,-24.87958328,1.989336271,-29.58,-21.57,96,0.76958333,0.458059787,0.06,2.34,96,0
EXEM,6/26/98,-20.89322923,1.220624988,-23.37,-18.23,96,0.652604166,0.478968726,0.08,2.04,96,0
EXEM,6/27/98,-21.37718753,3.659903206,-28.98,-16.12,96,0.806666669,0.571479462,0.01,2.76,96,0
EXEM,6/28/98,-28.43270828,1.476941647,-32.35,-25.51,96,0.842708333,0.429014735,0.23,2.41,96,0
EXEM,6/29/98,-24.47968753,1.530018454,-27.62,-21.25,96,0.798854164,0.420573221,0.07,2.13,96,0
EXEM,6/30/98,-24.30187502,3.048950148,-28.76,-19.2,96,0.687499998,0.398940701,0.07,1.89,96,0
EXEM,7/1/98,-16.69145835,1.481671143,-21,-13.81,96,0.412083333,0.227369007,0.18,1.54,96,0
EXEM,7/2/98,-15.51927075,2.600059542,-20.61,-11.84,96,0.528125002,0.452953613,0.08,2.82,96,0
EXEM,7/3/98,-22.59718756,1.877150031,-26.67,-18.49,96,1.153125004,0.605035571,0.34,2.89,96,0
EXEM,7/4/98,-16.17895836,3.385065859,-22.59,-10.63,96,0.517604167,0.232318951,0.12,1.07,96,0
EXEM,7/5/98,-18.80749999,2.734668981,-24.13,-14.36,96,0.876562502,0.372679712,0.23,2.13,96,0
EXEM,7/6/98,-23.23239593,3.312662716,-29.79,-18.45,96,0.3884375,0.318778349,-0.02,1.25,96,0
EXEM,7/7/98,-28.25552078,0.888666448,-30.22,-26.58,96,0.296874999,0.24104733,-0.02,0.99,96,0
EXEM,7/8/98,-25.09479167,0.773412092,-27.07,-23.3,96,0.047708334,0.069803924,-0.04,0.36,96,0
EXEM,7/9/98,-26.92468752,2.61783807,-32.24,-23.41,96,0.649895835,0.551143301,0.12,2.24,96,0
EXEM,7/10/98,-35.89385408,2.18178263,-39.25,-31.02,96,0.660312505,0.543674549,0.02,2.45,96,0
EXEM,7/11/98,-38.9076043,1.820266444,-43.4,-33.47,96,0.893541667,0.48593909,0.08,2.65,96,0
EXEM,7/12/98,-36.90468744,2.827978382,-42.26,-32.2,96,0.991979165,0.555067789,0.15,2.72,96,0
EXEM,7/13/98,-41.19520835,2.13864641,-45.08,-37.19,96,0.763437496,0.398391044,0.12,1.93,96,0
EXEM,7/14/98,-36.10614574,3.013370106,-42.96,-31.68,96,0.726979168,0.52255873,-0.05,2.42,96,0
EXEM,7/15/98,-29.90197919,3.103544829,-36.74,-22.51,96,0.499895833,0.288646548,0.03,1.37,96,0
EXEM,7/16/98,-23.93833337,3.315195807,-28.51,-18.28,96,0.736041668,0.597978138,0,3.44,96,0
EXEM,7/17/98,-23.88145834,2.166999822,-27.07,-20.23,96,0.563333334,0.3960241,0.07,1.71,96,0
EXEM,7/18/98,-22.54562495,1.63640423,-26.5,-20.06,96,0.932604165,0.478533379,0.26,2.35,96,0
EXEM,7/19/98,-31.87468745,3.278802067,-36.73,-25.26,96,1.087083336,0.567108855,0.07,3.31,96,0
EXEM,7/20/98,-23.86187511,9.525374634,-37.35,-11.62,96,0.418958333,0.283829006,-0.07,1.34,96,0
EXEM,7/21/98,-33.91531243,2.167158628,-38.18,-30.02,96,0.534583331,0.402737777,-0.02,1.91,96,0
EXEM,7/22/98,-30.48947916,4.161238539,-38.75,-22.96,96,0.453229167,0.375175734,0.02,1.75,96,0
EXEM,7/23/98,-33.2982291,2.15703633,-37.19,-25.91,96,1.148437501,0.73039906,0.24,4,96,0
EXEM,7/24/98,-25.33822916,1.730719935,-30.17,-20.72,96,0.846145835,0.495519653,0.13,2.32,96,0
EXEM,7/25/98,-25.81031245,2.888796996,-30.61,-17.24,96,1.256458328,0.69490322,0.27,3.59,96,0
EXEM,7/26/98,-24.81249996,3.182760738,-30.73,-16.28,96,1.248333331,0.886076704,0.12,3.88,96,0
EXEM,7/27/98,-32.78437501,2.025481307,-37.03,-27.84,96,1.010416668,0.565832259,0.21,2.43,96,0
EXEM,7/28/98,-29.7920832,1.757653948,-34.38,-26.39,96,0.892291666,0.464881378,-0.22,2.28,96,0
EXEM,7/29/98,-35.01927084,1.88039081,-38.94,-29.14,96,0.782604164,0.455913757,-0.13,2.06,96,0
EXEM,7/30/98,-36.09395834,1.732545841,-39.67,-33.12,96,0.707083332,0.412361404,0.12,2.31,96,0
EXEM,7/31/98,-40.55968769,1.202825265,-43.36,-38.07,96,0.719374997,0.333415536,0.09,1.83,96,0
EXEM,8/1/98,-40.68010418,1.689273636,-43.48,-35.54,96,0.71645833,0.320124905,-0.28,1.51,96,0
EXEM,8/2/98,-36.92437474,2.014898744,-43.48,-32.78,96,1.007708331,0.528251292,0.18,2.7,96,0
EXEM,8/3/98,-37.61979175,2.085016257,-41.02,-32.26,96,0.906249998,0.453728997,0,2.25,96,0
EXEM,8/4/98,-20.77885423,4.125773344,-35.01,-11.41,96,0.497187499,0.268593618,0.14,1.17,96,0
EXEM,8/5/98,-13.99781254,2.489835827,-19.96,-10.24,96,0.506145832,0.258946733,0.11,1.47,96,0
EXEM,8/6/98,-12.62468755,0.900250172,-15.57,-10.6,96,0.268125,0.036744138,0.14,0.37,96,0
EXEM,8/7/98,-21.70416665,3.113395458,-26.27,-14.69,96,0.813645836,0.525645713,0.13,2.49,96,0
EXEM,8/8/98,-22.77031267,1.788021761,-25.94,-17.04,96,0.714791665,0.529207903,0.01,1.92,96,0
EXEM,8/9/98,-22.69427089,1.500525325,-27.25,-20.43,96,0.701250001,0.367214986,0.13,1.96,96,0
EXEM,8/10/98,-21.20614587,3.781428914,-28.87,-15.39,96,0.502395834,0.314243432,0.17,1.56,96,0
EXEM,8/11/98,-22.2805209,3.339465948,-28.17,-16.41,96,1.044062497,0.677099975,0.19,3.43,96,0
EXEM,8/12/98,-31.52656249,2.013491755,-35.22,-27.41,96,0.850520834,0.451277417,-0.52,2.4,96,0
EXEM,8/13/98,-30.44687502,2.394934742,-36.25,-26.2,96,0.622916663,0.457263979,0.04,2.54,96,0
EXEM,8/14/98,-27.6242708,1.084070933,-30.24,-24.65,96,0.505833333,0.415379764,0.04,2.08,96,0
EXEM,8/15/98,-32.73656239,2.135473233,-38.09,-28.01,96,0.950520835,0.465632271,0.19,2.65,96,0
EXEM,8/16/98,-36.55666681,1.436321982,-40.04,-33.78,96,0.66625,0.293384065,-0.06,1.58,96,0
EXEM,8/17/98,-38.16031249,1.18159956,-40.76,-35.91,96,0.787499996,0.314793161,-0.11,1.54,96,0
EXEM,8/18/98,-36.77552062,2.859773506,-42.91,-30.48,96,0.602604166,0.283301012,0.22,1.53,96,0
EXEM,8/19/98,-33.01416659,2.592309555,-38.25,-29.84,96,0.494479166,0.445359393,-0.33,2.51,96,0